Terminal Aerodrome Forecast
Issued by NWS Blacksburg, VA

Current Version | Previous Version | Text Only | Print | Product List | Glossary Off
Versions: 1 2 3 4 5 6 7 8 9 10 11 12 13 14 15 16 17 18 19 20 21 22 23 24 25 26 27 28 29 30 31 32 33 34 35 36 37 38 39 40 41 42 43 44 45 46 47 48

000
FTUS41 KRNK 260403 AAA
TAFBLF
TAF AMD
KBLF 260403Z 2604/2624 16005KT P6SM BKN050
     FM261200 22010KT P6SM BKN040
     FM261600 24015G25KT P6SM VCSH BKN080
     FM262200 26012G25KT 6SM -SHRA OVC040=

USA.gov is the U.S. government's official web portal to all federal, state and local government web resources and services.